Cedar Rapids, IA

10:36 AM CST on December 15, 2019 (GMT -0600)
The Eastern Iowa Airport

Weather History for KCID - August, 2019

Change the Weather History Date:

Friday, August 23, 2019

  Actual Average Record
Temperature  
Mean Temperature 66 °F 70 °F  
Max Temperature 77 °F 81 °F 99 °F (1947)
Min Temperature 54 °F 60 °F 45 °F (1923)
Degree Days  
Heating Degree Days 0 1  
Month to date heating degree days 0 4  
Since 1 June heating degree days 11 37  
Since 1 July heating degree days 0 8  
Cooling Degree Days 1 6  
Month to date cooling degree days 145 157  
Year to date cooling degree days 647 624  
Since 1 June cooling degree days 619 575  
Growing Degree Days 14 (Base 50)    
Moisture  
Dew Point 57 °F    
Average Humidity 77    
Maximum Humidity 100    
Minimum Humidity 54    
Precipitation  
Precipitation 0.00 in 0.14 in 3.10 in (2002)
Month to date precipitation 4.92 3.37  
Year to date precipitation 27.51 24.19  
Sea Level Pressure  
Sea Level Pressure 30.15 in    
Wind  
Wind Speed 9 mph (East)    
Max Wind Speed 15 mph    
Max Gust Speed 22 mph    
Visibility 10 miles    
Events      
T = Trace of Precipitation, MM = Missing Value Source: NWS Daily Summary

Daily Weather History Graph

Daily Weather History Graph

Search for Another Location

Airport or City:

Astronomy

Aug. 23, 2019 Rise Set
Actual Time 6:23 AM CDT 7:55 PM CDT
Civil Twilight 5:53 AM CDT 8:24 PM CDT
Nautical Twilight 5:18 AM CDT 8:59 PM CDT
Astronomical Twilight 4:40 AM CDT 9:37 PM CDT
Moon No Moon Rise 2:07 PM CDT (8/23)
Length of Visible Light 14h 30m
Length of Day
13h 32m
Waning Gibbous, 49% of the Moon is Illuminated
Aug 23
Waning Gibbous
Aug 30
New
Sep 5
First Quarter
Sep 13
Full
Sep 21
Last Quarter

Hourly Weather History & Observations

Time (CDT) Temp. Dew Point Humidity Pressure Visibility Wind Dir Wind Speed Gust Speed Precip Events Conditions
12:52 AM 57.9 °F 55.9 °F 93% 30.09 in 10.0 mi East 5.8 mph - N/A   Clear
1:52 AM 57.9 °F 55.0 °F 90% 30.10 in 10.0 mi East 8.1 mph - N/A   Clear
2:52 AM 57.0 °F 55.9 °F 96% 30.09 in 10.0 mi East 5.8 mph - N/A   Unknown
3:52 AM 57.0 °F 55.9 °F 96% 30.09 in 10.0 mi East 6.9 mph - N/A   Clear
4:52 AM 55.9 °F 55.0 °F 97% 30.10 in 10.0 mi East 6.9 mph - N/A   Clear
5:52 AM 54.0 °F 54.0 °F 100% 30.12 in 10.0 mi Calm Calm - N/A   Clear
6:52 AM 54.0 °F 54.0 °F 100% 30.15 in 10.0 mi Calm Calm - N/A   Clear
7:52 AM 60.1 °F 57.0 °F 90% 30.17 in 10.0 mi East 9.2 mph - N/A   Clear
8:52 AM 63.0 °F 57.9 °F 84% 30.17 in 10.0 mi ESE 9.2 mph - N/A   Clear
9:52 AM 66.9 °F 59.0 °F 76% 30.18 in 10.0 mi East 10.4 mph - N/A   Clear
10:52 AM 70.0 °F 59.0 °F 68% 30.18 in 10.0 mi East 11.5 mph - N/A   Clear
11:52 AM 73.0 °F 59.0 °F 61% 30.19 in 10.0 mi East 12.7 mph - N/A   Clear
12:52 PM 73.9 °F 57.9 °F 57% 30.19 in 10.0 mi ESE 13.8 mph - N/A   Clear
1:52 PM 75.0 °F 57.9 °F 55% 30.18 in 10.0 mi East 12.7 mph - N/A   Clear
2:52 PM 75.9 °F 57.9 °F 54% 30.16 in 10.0 mi ESE 13.8 mph - N/A   Clear
3:52 PM 75.9 °F 59.0 °F 56% 30.15 in 10.0 mi East 15.0 mph 19.6 mph N/A   Clear
4:52 PM 75.9 °F 57.9 °F 54% 30.15 in 10.0 mi ESE 10.4 mph - N/A   Partly Cloudy
5:52 PM 73.9 °F 57.0 °F 55% 30.15 in 10.0 mi East 11.5 mph - N/A   Clear
6:52 PM 72.0 °F 57.9 °F 61% 30.15 in 10.0 mi East 6.9 mph - N/A   Clear
7:52 PM 68.0 °F 59.0 °F 73% 30.15 in 10.0 mi East 9.2 mph - N/A   Clear
8:52 PM 64.0 °F 59.0 °F 84% 30.18 in 10.0 mi East 5.8 mph - N/A   Clear
9:52 PM 62.1 °F 57.0 °F 84% 30.19 in 10.0 mi East 6.9 mph - N/A   Clear
11:52 PM 60.1 °F 57.0 °F 90% 30.19 in 10.0 mi East 9.2 mph - N/A   Clear